| time (UTC) | temp F | wind direction | speed MPH | gust MPH | rain 1hr in | rain 24hr in | rain mn in | humidity % | barometer mb |
| 20260505035346 | 68 | 194 | 1.0 | 3.0 | 0.00 | 0.00 | 0.00 | 31 | 1013.7 |
| 20260505035142 | 68 | 194 | 1.0 | 3.0 | 0.00 | 0.00 | 0.00 | 31 | 1013.7 |
| 20260505034843 | 68 | 194 | 1.0 | 3.0 | 0.00 | 0.00 | 0.00 | 31 | 1013.8 |
| 20260505034604 | 68 | 194 | 1.0 | 3.0 | 0.00 | 0.00 | 0.00 | 31 | 1013.8 |
| 20260505034140 | 69 | 194 | 1.0 | 3.0 | 0.00 | 0.00 | 0.00 | 30 | 1013.8 |
| 20260505033845 | 69 | 194 | 0.0 | 3.0 | 0.00 | 0.00 | 0.00 | 30 | 1013.8 |
| 20260505033345 | 69 | 194 | 0.0 | 3.0 | 0.00 | 0.00 | 0.00 | 30 | 1013.8 |
| 20260505033141 | 69 | 193 | 1.0 | 3.0 | 0.00 | 0.00 | 0.00 | 29 | 1013.8 |
| 20260505032840 | 69 | 194 | 1.0 | 5.0 | 0.00 | 0.00 | 0.00 | 30 | 1013.8 |
| 20260505032340 | 69 | 194 | 1.0 | 5.0 | 0.00 | 0.00 | 0.00 | 30 | 1013.8 |
| 20260505032139 | 69 | 194 | 1.0 | 4.0 | 0.00 | 0.00 | 0.00 | 30 | 1013.8 |
| 20260505031843 | 69 | 171 | 1.0 | 5.0 | 0.00 | 0.00 | 0.00 | 31 | 1013.8 |
| 20260505031601 | 69 | 170 | 1.0 | 5.0 | 0.00 | 0.00 | 0.00 | 30 | 1013.8 |
| 20260505031137 | 69 | 170 | 1.0 | 5.0 | 0.00 | 0.00 | 0.00 | 30 | 1013.8 |
| 20260505030842 | 69 | 169 | 2.0 | 5.0 | 0.00 | 0.00 | 0.00 | 31 | 1013.8 |
| 20260505030340 | 69 | 168 | 2.0 | 5.0 | 0.00 | 0.00 | 0.00 | 31 | 1013.8 |
| 20260505030137 | 69 | 168 | 2.0 | 5.0 | 0.00 | 0.00 | 0.00 | 31 | 1013.8 |
| 20260505025840 | 69 | 166 | 1.0 | 5.0 | 0.00 | 0.00 | 0.00 | 30 | 1013.8 |
| 20260505025341 | 70 | 163 | 1.0 | 5.0 | 0.00 | 0.00 | 0.00 | 29 | 1013.7 |
| 20260505025136 | 70 | 163 | 1.0 | 5.0 | 0.00 | 0.00 | 0.00 | 29 | 1013.7 |
| 20260505024842 | 70 | 163 | 2.0 | 5.0 | 0.00 | 0.00 | 0.00 | 30 | 1013.8 |
| 20260505024338 | 71 | 264 | 1.0 | 4.0 | 0.00 | 0.00 | 0.00 | 27 | 1013.9 |
| 20260505023837 | 71 | 264 | 1.0 | 7.0 | 0.00 | 0.00 | 0.00 | 27 | 1013.8 |
| 20260505023619 | 71 | 263 | 1.0 | 7.0 | 0.00 | 0.00 | 0.00 | 27 | 1013.7 |
| 20260505023337 | 71 | 263 | 1.0 | 7.0 | 0.00 | 0.00 | 0.00 | 27 | 1013.7 |
| 20260505023056 | 71 | 263 | 1.0 | 3.0 | 0.00 | 0.00 | 0.00 | 27 | 1013.7 |
| 20260505022558 | 72 | 263 | 0.0 | 3.0 | 0.00 | 0.00 | 0.00 | 26 | 1013.7 |
| 20260505022136 | 72 | 262 | 0.0 | 3.0 | 0.00 | 0.00 | 0.00 | 27 | 1013.7 |
| 20260505021836 | 72 | 262 | 1.0 | 3.0 | 0.00 | 0.00 | 0.00 | 26 | 1013.7 |
| 20260505021337 | 72 | 262 | 1.0 | 7.0 | 0.00 | 0.00 | 0.00 | 27 | 1013.7 |
| 20260505021137 | 72 | 262 | 2.0 | 7.0 | 0.00 | 0.00 | 0.00 | 26 | 1013.7 |
| 20260505020839 | 72 | 262 | 1.0 | 7.0 | 0.00 | 0.00 | 0.00 | 26 | 1013.6 |
| 20260505020337 | 72 | 262 | 1.0 | 6.0 | 0.00 | 0.00 | 0.00 | 26 | 1013.6 |
| 20260505020136 | 72 | 259 | 1.0 | 3.0 | 0.00 | 0.00 | 0.00 | 26 | 1013.6 |
| 20260505020051 | 72 | 259 | 0.0 | 3.0 | 0.00 | 0.00 | 0.00 | 26 | 1013.6 |
| 20260505015603 | 73 | 259 | 0.0 | 3.0 | 0.00 | 0.00 | 0.00 | 26 | 1013.5 |
| 20260505015138 | 73 | 259 | 0.0 | 3.0 | 0.00 | 0.00 | 0.00 | 25 | 1013.5 |
| 20260505014832 | 73 | 259 | 0.0 | 3.0 | 0.00 | 0.00 | 0.00 | 25 | 1013.4 |
| 20260505014331 | 73 | 259 | 0.0 | 3.0 | 0.00 | 0.00 | 0.00 | 24 | 1013.5 |
| 20260505014136 | 73 | 259 | 0.0 | 2.0 | 0.00 | 0.00 | 0.00 | 24 | 1013.6 |
| 20260505013832 | 73 | 259 | 0.0 | 2.0 | 0.00 | 0.00 | 0.00 | 25 | 1013.5 |
| 20260505013623 | 73 | 259 | 0.0 | 3.0 | 0.00 | 0.00 | 0.00 | 25 | 1013.4 |
| 20260505013333 | 73 | 259 | 0.0 | 3.0 | 0.00 | 0.00 | 0.00 | 25 | 1013.5 |
| 20260505012833 | 73 | 259 | 0.0 | 3.0 | 0.00 | 0.00 | 0.00 | 25 | 1013.4 |
| 20260505012332 | 73 | 259 | 0.0 | 3.0 | 0.00 | 0.00 | 0.00 | 25 | 1013.4 |
| 20260505012137 | 73 | 259 | 1.0 | 3.0 | 0.00 | 0.00 | 0.00 | 25 | 1013.4 |
| 20260505011833 | 73 | 259 | 1.0 | 3.0 | 0.00 | 0.00 | 0.00 | 25 | 1013.4 |
| 20260505011550 | 73 | 259 | 0.0 | 3.0 | 0.00 | 0.00 | 0.00 | 25 | 1013.3 |
| 20260505011137 | 73 | 259 | 0.0 | 3.0 | 0.00 | 0.00 | 0.00 | 25 | 1013.3 |
| 20260505010827 | 73 | 257 | 0.0 | 3.0 | 0.00 | 0.00 | 0.00 | 25 | 1013.4 |
| 20260505010609 | 73 | 257 | 1.0 | 3.0 | 0.00 | 0.00 | 0.00 | 25 | 1013.3 |
| 20260505010550 | 73 | 257 | 0.0 | 3.0 | 0.00 | 0.00 | 0.00 | 25 | 1013.3 |
| 20260505005825 | 73 | 258 | 0.0 | 2.0 | 0.00 | 0.00 | 0.00 | 25 | 1013.2 |
| 20260505005327 | 73 | 258 | 0.0 | 2.0 | 0.00 | 0.00 | 0.00 | 24 | 1013.2 |
| 20260505005133 | 73 | 258 | 0.0 | 3.0 | 0.00 | 0.00 | 0.00 | 24 | 1013.1 |
| 20260505005049 | 73 | 258 | 0.0 | 4.0 | 0.00 | 0.00 | 0.00 | 24 | 1013.1 |
| 20260505004322 | 74 | 258 | 1.0 | 4.0 | 0.00 | 0.00 | 0.00 | 24 | 1013.0 |
| 20260505004130 | 74 | 259 | 1.0 | 4.0 | 0.00 | 0.00 | 0.00 | 24 | 1013.0 |
| 20260505004050 | 74 | 259 | 1.0 | 3.0 | 0.00 | 0.00 | 0.00 | 23 | 1013.0 |
| 20260505003323 | 74 | 259 | 0.0 | 3.0 | 0.00 | 0.00 | 0.00 | 22 | 1013.0 |
| 20260505003131 | 74 | 259 | 0.0 | 3.0 | 0.00 | 0.00 | 0.00 | 22 | 1013.0 |
| 20260505002823 | 75 | 259 | 0.0 | 3.0 | 0.00 | 0.00 | 0.00 | 21 | 1013.0 |
| 20260505002321 | 75 | 259 | 0.0 | 3.0 | 0.00 | 0.00 | 0.00 | 20 | 1013.0 |
| 20260505002129 | 75 | 259 | 1.0 | 3.0 | 0.00 | 0.00 | 0.00 | 21 | 1013.0 |
| 20260505001818 | 75 | 259 | 0.0 | 3.0 | 0.00 | 0.00 | 0.00 | 20 | 1013.0 |
| 20260505001315 | 75 | 259 | 1.0 | 7.0 | 0.00 | 0.00 | 0.00 | 20 | 1012.9 |
| 20260505001123 | 75 | 259 | 1.0 | 7.0 | 0.00 | 0.00 | 0.00 | 20 | 1012.9 |
| 20260505000816 | 75 | 259 | 1.0 | 7.0 | 0.00 | 0.00 | 0.00 | 20 | 1012.9 |
| 20260505000314 | 75 | 259 | 1.0 | 7.0 | 0.00 | 0.00 | 0.00 | 19 | 1012.9 |
| 20260505000124 | 75 | 259 | 1.0 | 7.0 | 0.00 | 0.00 | 0.00 | 19 | 1012.9 |
| 20260505000041 | 75 | 259 | 1.0 | 7.0 | 0.00 | 0.00 | 0.00 | 19 | 1012.8 |
| 20260504235309 | 76 | 252 | 2.0 | 5.0 | 0.00 | 0.00 | 0.00 | 19 | 1012.8 |
| 20260504235124 | 76 | 252 | 2.0 | 5.0 | 0.00 | 0.00 | 0.00 | 19 | 1012.8 |
| 20260504234806 | 75 | 252 | 2.0 | 5.0 | 0.00 | 0.00 | 0.00 | 19 | 1012.8 |
| 20260504234305 | 76 | 251 | 1.0 | 5.0 | 0.00 | 0.00 | 0.00 | 19 | 1012.9 |
| 20260504234123 | 76 | 251 | 1.0 | 5.0 | 0.00 | 0.00 | 0.00 | 19 | 1012.8 |
| 20260504233804 | 76 | 246 | 1.0 | 5.0 | 0.00 | 0.00 | 0.00 | 19 | 1012.9 |
| 20260504233304 | 76 | 246 | 1.0 | 6.0 | 0.00 | 0.00 | 0.00 | 20 | 1012.9 |
| 20260504233121 | 76 | 242 | 1.0 | 6.0 | 0.00 | 0.00 | 0.00 | 20 | 1012.9 |
| 20260504232805 | 76 | 241 | 1.0 | 6.0 | 0.00 | 0.00 | 0.00 | 20 | 1012.9 |
| 20260504232259 | 75 | 232 | 1.0 | 8.0 | 0.00 | 0.00 | 0.00 | 20 | 1012.9 |
| 20260504232120 | 75 | 232 | 2.0 | 8.0 | 0.00 | 0.00 | 0.00 | 20 | 1012.8 |
| 20260504231800 | 75 | 231 | 1.0 | 8.0 | 0.00 | 0.00 | 0.00 | 19 | 1012.8 |
| 20260504231604 | 76 | 273 | 1.0 | 7.0 | 0.00 | 0.00 | 0.00 | 18 | 1013.0 |
| 20260504231519 | 76 | 273 | 1.0 | 7.0 | 0.00 | 0.00 | 0.00 | 18 | 1012.9 |
| 20260504230758 | 76 | 273 | 1.0 | 7.0 | 0.00 | 0.00 | 0.00 | 18 | 1013.0 |
| 20260504230254 | 77 | 275 | 1.0 | 7.0 | 0.00 | 0.00 | 0.00 | 17 | 1013.0 |
| 20260504230120 | 77 | 275 | 1.0 | 6.0 | 0.00 | 0.00 | 0.00 | 17 | 1013.0 |
| 20260504225751 | 76 | 277 | 1.0 | 4.0 | 0.00 | 0.00 | 0.00 | 18 | 1012.9 |
| 20260504225251 | 76 | 277 | 2.0 | 7.0 | 0.00 | 0.00 | 0.00 | 18 | 1013.0 |
| 20260504225117 | 77 | 277 | 1.0 | 7.0 | 0.00 | 0.00 | 0.00 | 17 | 1013.0 |
| 20260504224750 | 77 | 271 | 1.0 | 7.0 | 0.00 | 0.00 | 0.00 | 17 | 1013.0 |
| 20260504224602 | 77 | 269 | 1.0 | 8.0 | 0.00 | 0.00 | 0.00 | 18 | 1012.9 |
| 20260504224250 | 77 | 269 | 1.0 | 8.0 | 0.00 | 0.00 | 0.00 | 18 | 1013.0 |
| 20260504223751 | 77 | 269 | 2.0 | 8.0 | 0.00 | 0.00 | 0.00 | 17 | 1013.0 |
| 20260504223243 | 77 | 266 | 2.0 | 7.0 | 0.00 | 0.00 | 0.00 | 17 | 1012.9 |
| 20260504223116 | 77 | 266 | 2.0 | 7.0 | 0.00 | 0.00 | 0.00 | 17 | 1013.0 |
| 20260504222745 | 78 | 267 | 1.0 | 7.0 | 0.00 | 0.00 | 0.00 | 16 | 1013.0 |
| 20260504222242 | 79 | 271 | 1.0 | 7.0 | 0.00 | 0.00 | 0.00 | 17 | 1013.0 |
| 20260504222116 | 78 | 271 | 1.0 | 7.0 | 0.00 | 0.00 | 0.00 | 17 | 1013.0 |
| 20260504221740 | 79 | 273 | 1.0 | 7.0 | 0.00 | 0.00 | 0.00 | 17 | 1013.0 |
| 20260504221241 | 78 | 273 | 2.0 | 8.0 | 0.00 | 0.00 | 0.00 | 17 | 1013.0 |
| 20260504221115 | 78 | 272 | 2.0 | 8.0 | 0.00 | 0.00 | 0.00 | 17 | 1013.0 |
| 20260504220739 | 78 | 271 | 2.0 | 8.0 | 0.00 | 0.00 | 0.00 | 17 | 1013.1 |
| 20260504220240 | 78 | 272 | 2.0 | 8.0 | 0.00 | 0.00 | 0.00 | 17 | 1013.0 |
| 20260504220115 | 78 | 269 | 2.0 | 8.0 | 0.00 | 0.00 | 0.00 | 17 | 1012.9 |
| 20260504215741 | 78 | 264 | 2.0 | 8.0 | 0.00 | 0.00 | 0.00 | 18 | 1012.9 |
| 20260504215502 | 79 | 263 | 1.0 | 6.0 | 0.00 | 0.00 | 0.00 | 17 | 1012.8 |
| 20260504215116 | 79 | 263 | 1.0 | 6.0 | 0.00 | 0.00 | 0.00 | 18 | 1012.8 |
| 20260504214739 | 78 | 263 | 2.0 | 6.0 | 0.00 | 0.00 | 0.00 | 17 | 1012.7 |
| 20260504214241 | 79 | 261 | 2.0 | 6.0 | 0.00 | 0.00 | 0.00 | 17 | 1012.8 |
| 20260504214116 | 79 | 259 | 2.0 | 6.0 | 0.00 | 0.00 | 0.00 | 16 | 1012.8 |
| 20260504213741 | 80 | 261 | 1.0 | 6.0 | 0.00 | 0.00 | 0.00 | 15 | 1012.8 |
| 20260504213239 | 80 | 257 | 1.0 | 5.0 | 0.00 | 0.00 | 0.00 | 15 | 1012.8 |
| 20260504213115 | 80 | 249 | 1.0 | 5.0 | 0.00 | 0.00 | 0.00 | 16 | 1012.8 |
| 20260504212956 | 80 | 235 | 1.0 | 5.0 | 0.00 | 0.00 | 0.00 | 16 | 1012.8 |
| 20260504212240 | 80 | 229 | 2.0 | 6.0 | 0.00 | 0.00 | 0.00 | 16 | 1012.7 |
| 20260504212115 | 80 | 230 | 2.0 | 6.0 | 0.00 | 0.00 | 0.00 | 16 | 1012.7 |
| 20260504211741 | 80 | 230 | 1.0 | 6.0 | 0.00 | 0.00 | 0.00 | 16 | 1012.7 |
| 20260504211241 | 80 | 188 | 1.0 | 3.0 | 0.00 | 0.00 | 0.00 | 16 | 1012.8 |
| 20260504211118 | 80 | 188 | 1.0 | 5.0 | 0.00 | 0.00 | 0.00 | 16 | 1012.8 |
| 20260504210503 | 81 | 188 | 1.0 | 6.0 | 0.00 | 0.00 | 0.00 | 15 | 1012.8 |
| 20260504205736 | 81 | 267 | 1.0 | 6.0 | 0.00 | 0.00 | 0.00 | 15 | 1012.9 |
| 20260504205235 | 83 | 269 | 1.0 | 4.0 | 0.00 | 0.00 | 0.00 | 14 | 1013.1 |
| 20260504205116 | 83 | 269 | 1.0 | 9.0 | 0.00 | 0.00 | 0.00 | 14 | 1013.1 |
| 20260504204735 | 83 | 269 | 2.0 | 9.0 | 0.00 | 0.00 | 0.00 | 15 | 1013.1 |
| 20260504204235 | 82 | 268 | 2.0 | 9.0 | 0.00 | 0.00 | 0.00 | 14 | 1013.0 |
| 20260504204116 | 82 | 269 | 2.0 | 8.0 | 0.00 | 0.00 | 0.00 | 14 | 1013.0 |
| 20260504203736 | 83 | 271 | 2.0 | 8.0 | 0.00 | 0.00 | 0.00 | 14 | 1013.0 |
| 20260504203234 | 83 | 268 | 1.0 | 3.0 | 0.00 | 0.00 | 0.00 | 14 | 1013.1 |
| 20260504202735 | 83 | 268 | 0.0 | 4.0 | 0.00 | 0.00 | 0.00 | 14 | 1013.1 |
| 20260504202236 | 82 | 269 | 0.0 | 4.0 | 0.00 | 0.00 | 0.00 | 13 | 1013.1 |
| 20260504202116 | 83 | 269 | 0.0 | 4.0 | 0.00 | 0.00 | 0.00 | 13 | 1013.1 |
| 20260504201731 | 83 | 268 | 0.0 | 9.0 | 0.00 | 0.00 | 0.00 | 13 | 1013.2 |
| 20260504201454 | 83 | 268 | 0.0 | 9.0 | 0.00 | 0.00 | 0.00 | 14 | 1013.2 |
| 20260504201115 | 83 | 268 | 1.0 | 9.0 | 0.00 | 0.00 | 0.00 | 15 | 1013.3 |
| 20260504200954 | 82 | 268 | 1.0 | 9.0 | 0.00 | 0.00 | 0.00 | 15 | 1013.4 |
| 20260504200455 | 83 | 268 | 1.0 | 9.0 | 0.00 | 0.00 | 0.00 | 14 | 1013.4 |
| 20260504200116 | 84 | 268 | 1.0 | 9.0 | 0.00 | 0.00 | 0.00 | 14 | 1013.5 |
| 20260504195734 | 85 | 264 | 0.0 | 3.0 | 0.00 | 0.00 | 0.00 | 14 | 1013.4 |
| 20260504195604 | 84 | 264 | 0.0 | 2.0 | 0.00 | 0.00 | 0.00 | 13 | 1013.4 |
| 20260504195236 | 84 | 264 | 0.0 | 2.0 | 0.00 | 0.00 | 0.00 | 14 | 1013.4 |
| 20260504194233 | 83 | 264 | 1.0 | 3.0 | 0.00 | 0.00 | 0.00 | 15 | 1013.7 |
| 20260504194114 | 82 | 264 | 1.0 | 3.0 | 0.00 | 0.00 | 0.00 | 14 | 1013.7 |
| 20260504193733 | 83 | 264 | 1.0 | 3.0 | 0.00 | 0.00 | 0.00 | 14 | 1013.7 |
| 20260504193229 | 83 | 263 | 1.0 | 4.0 | 0.00 | 0.00 | 0.00 | 13 | 1013.8 |
| 20260504193113 | 83 | 263 | 1.0 | 4.0 | 0.00 | 0.00 | 0.00 | 13 | 1013.8 |
| 20260504192946 | 82 | 263 | 1.0 | 4.0 | 0.00 | 0.00 | 0.00 | 12 | 1013.9 |
| 20260504192227 | 82 | 264 | 1.0 | 6.0 | 0.00 | 0.00 | 0.00 | 11 | 1013.9 |
| 20260504192113 | 82 | 264 | 1.0 | 6.0 | 0.00 | 0.00 | 0.00 | 12 | 1014.0 |
| 20260504191727 | 83 | 264 | 1.0 | 6.0 | 0.00 | 0.00 | 0.00 | 12 | 1014.0 |
| 20260504191448 | 83 | 261 | 1.0 | 4.0 | 0.00 | 0.00 | 0.00 | 14 | 1014.0 |
| 20260504191113 | 83 | 261 | 1.0 | 4.0 | 0.00 | 0.00 | 0.00 | 14 | 1014.0 |
| 20260504190946 | 82 | 261 | 1.0 | 4.0 | 0.00 | 0.00 | 0.00 | 16 | 1014.1 |
| 20260504190226 | 83 | 261 | 1.0 | 4.0 | 0.00 | 0.00 | 0.00 | 15 | 1014.1 |
| 20260504190114 | 83 | 261 | 1.0 | 4.0 | 0.00 | 0.00 | 0.00 | 15 | 1014.2 |
| 20260504185725 | 82 | 261 | 1.0 | 4.0 | 0.00 | 0.00 | 0.00 | 16 | 1014.2 |
| 20260504185226 | 82 | 261 | 1.0 | 4.0 | 0.00 | 0.00 | 0.00 | 17 | 1014.4 |
| 20260504185112 | 81 | 260 | 1.0 | 4.0 | 0.00 | 0.00 | 0.00 | 17 | 1014.4 |
| 20260504184726 | 83 | 262 | 0.0 | 4.0 | 0.00 | 0.00 | 0.00 | 16 | 1014.5 |
| 20260504184225 | 83 | 259 | 0.0 | 3.0 | 0.00 | 0.00 | 0.00 | 16 | 1014.5 |
| 20260504184114 | 83 | 259 | 0.0 | 3.0 | 0.00 | 0.00 | 0.00 | 16 | 1014.6 |
| 20260504183728 | 83 | 259 | 0.0 | 3.0 | 0.00 | 0.00 | 0.00 | 16 | 1014.6 |
| 20260504183225 | 81 | 259 | 0.0 | 3.0 | 0.00 | 0.00 | 0.00 | 16 | 1014.6 |
| 20260504183113 | 81 | 259 | 1.0 | 3.0 | 0.00 | 0.00 | 0.00 | 16 | 1014.6 |
| 20260504182724 | 82 | 259 | 1.0 | 2.0 | 0.00 | 0.00 | 0.00 | 16 | 1014.7 |
| 20260504182448 | 83 | 259 | 0.0 | 2.0 | 0.00 | 0.00 | 0.00 | 15 | 1014.8 |
| 20260504182114 | 83 | 259 | 0.0 | 2.0 | 0.00 | 0.00 | 0.00 | 15 | 1014.7 |
| 20260504181731 | 82 | 261 | 0.0 | 2.0 | 0.00 | 0.00 | 0.00 | 14 | 1014.8 |
| 20260504181231 | 82 | 261 | 0.0 | 2.0 | 0.00 | 0.00 | 0.00 | 15 | 1014.9 |
| 20260504180725 | 82 | 261 | 0.0 | 2.0 | 0.00 | 0.00 | 0.00 | 16 | 1015.0 |
| 20260504180223 | 83 | 261 | 0.0 | 1.0 | 0.00 | 0.00 | 0.00 | 16 | 1015.0 |
| 20260504180113 | 83 | 261 | 0.0 | 1.0 | 0.00 | 0.00 | 0.00 | 15 | 1015.0 |
| 20260504175724 | 83 | 261 | 0.0 | 1.0 | 0.00 | 0.00 | 0.00 | 17 | 1015.1 |
| 20260504175226 | 83 | 261 | 0.0 | 1.0 | 0.00 | 0.00 | 0.00 | 17 | 1015.2 |
| 20260504175111 | 83 | 261 | 0.0 | 1.0 | 0.00 | 0.00 | 0.00 | 17 | 1015.2 |
| 20260504174723 | 82 | 261 | 0.0 | 1.0 | 0.00 | 0.00 | 0.00 | 17 | 1015.2 |
| 20260504174224 | 82 | 261 | 0.0 | 1.0 | 0.00 | 0.00 | 0.00 | 18 | 1015.3 |
| 20260504174111 | 82 | 261 | 0.0 | 1.0 | 0.00 | 0.00 | 0.00 | 18 | 1015.3 |
| 20260504173721 | 82 | 261 | 0.0 | 1.0 | 0.00 | 0.00 | 0.00 | 18 | 1015.3 |
| 20260504173223 | 80 | 261 | 0.0 | 2.0 | 0.00 | 0.00 | 0.00 | 19 | 1015.3 |
| 20260504173110 | 80 | 261 | 0.0 | 2.0 | 0.00 | 0.00 | 0.00 | 19 | 1015.3 |
| 20260504172721 | 81 | 261 | 0.0 | 2.0 | 0.00 | 0.00 | 0.00 | 19 | 1015.4 |
| 20260504172442 | 79 | 261 | 0.0 | 2.0 | 0.00 | 0.00 | 0.00 | 20 | 1015.4 |
| 20260504172110 | 79 | 261 | 0.0 | 2.0 | 0.00 | 0.00 | 0.00 | 20 | 1015.5 |
| 20260504171947 | 79 | 261 | 0.0 | 3.0 | 0.00 | 0.00 | 0.00 | 20 | 1015.6 |
| 20260504171552 | 78 | 261 | 0.0 | 3.0 | 0.00 | 0.00 | 0.00 | 21 | 1015.6 |
| 20260504171228 | 79 | 261 | 0.0 | 3.0 | 0.00 | 0.00 | 0.00 | 21 | 1015.6 |
| 20260504170719 | 78 | 261 | 0.0 | 3.0 | 0.00 | 0.00 | 0.00 | 21 | 1015.7 |
| 20260504170108 | 78 | 261 | 0.0 | 3.0 | 0.00 | 0.00 | 0.00 | 21 | 1015.7 |
| 20260504160200 | 76 | 261 | 0.0 | 2.0 | 0.00 | 0.00 | 0.00 | 21 | 1016.4 |
| 20260504160106 | 76 | 261 | 0.0 | 2.0 | 0.00 | 0.00 | 0.00 | 21 | 1016.4 |
| 20260504151141 | 72 | 261 | 0.0 | 2.0 | 0.00 | 0.00 | 0.00 | 24 | 1016.6 |
| 20260504151105 | 72 | 261 | 0.0 | 1.0 | 0.00 | 0.00 | 0.00 | 24 | 1016.6 |
| 20260504150637 | 71 | 261 | 0.0 | 4.0 | 0.00 | 0.00 | 0.00 | 25 | 1016.5 |
| 20260504150135 | 71 | 261 | 0.0 | 4.0 | 0.00 | 0.00 | 0.00 | 25 | 1016.6 |
| 20260504150104 | 71 | 261 | 0.0 | 4.0 | 0.00 | 0.00 | 0.00 | 25 | 1016.6 |
| 20260504141103 | 67 | 261 | 1.0 | 4.0 | 0.00 | 0.00 | 0.00 | 28 | 1016.8 |
| 20260504140627 | 67 | 260 | 0.0 | 4.0 | 0.00 | 0.00 | 0.00 | 28 | 1016.9 |
| 20260504130628 | 60 | 260 | 0.0 | 1.0 | 0.00 | 0.00 | 0.00 | 36 | 1016.7 |
| 20260504130349 | 60 | 260 | 0.0 | 1.0 | 0.00 | 0.00 | 0.00 | 38 | 1016.7 |
| 20260504110622 | 56 | 260 | 2.0 | 4.0 | 0.00 | 0.00 | 0.00 | 38 | 1016.2 |
| 20260504110548 | 56 | 260 | 1.0 | 3.0 | 0.00 | 0.00 | 0.00 | 38 | 1016.1 |
| 20260504110213 | 56 | 260 | 1.0 | 3.0 | 0.00 | 0.00 | 0.00 | 38 | 1016.1 |
| 20260504090110 | 57 | 260 | 0.0 | 2.0 | 0.00 | 0.00 | 0.00 | 40 | 1016.2 |
| 20260504081552 | 57 | 260 | 0.0 | 0.0 | 0.00 | 0.00 | 0.00 | 41 | 1016.1 |
| 20260504081310 | 57 | 260 | 0.0 | 0.0 | 0.00 | 0.00 | 0.00 | 41 | 1016.1 |
| 20260504081153 | 57 | 260 | 0.0 | 0.0 | 0.00 | 0.00 | 0.00 | 41 | 1016.1 |
| 20260504080546 | 57 | 260 | 0.0 | 0.0 | 0.00 | 0.00 | 0.00 | 41 | 1016.1 |
| 20260504050741 | 60 | 260 | 0.0 | 1.0 | 0.00 | 0.00 | 0.00 | 34 | 1016.8 |
| 20260504050012 | 60 | 260 | 0.0 | 1.0 | 0.00 | 0.00 | 0.00 | 34 | 1016.8 |
| 20260504045511 | 60 | 260 | 0.0 | 0.0 | 0.00 | 0.00 | 0.00 | 34 | 1016.8 |
| 20260504045011 | 60 | 260 | 0.0 | 1.0 | 0.00 | 0.00 | 0.00 | 34 | 1016.7 |
| 20260504044513 | 61 | 260 | 1.0 | 3.0 | 0.00 | 0.00 | 0.00 | 33 | 1016.8 |
| 20260504044033 | 61 | 260 | 1.0 | 3.0 | 0.00 | 0.00 | 0.00 | 32 | 1016.8 |
| 20260504044012 | 61 | 260 | 1.0 | 4.0 | 0.00 | 0.00 | 0.00 | 32 | 1016.8 |
| 20260504043529 | 61 | 260 | 0.0 | 4.0 | 0.00 | 0.00 | 0.00 | 32 | 1016.9 |
| 20260504043513 | 61 | 260 | 0.0 | 4.0 | 0.00 | 0.00 | 0.00 | 32 | 1016.9 |
| 20260504043011 | 61 | 260 | 0.0 | 3.0 | 0.00 | 0.00 | 0.00 | 32 | 1016.9 |
| 20260504042511 | 61 | 260 | 0.0 | 4.0 | 0.00 | 0.00 | 0.00 | 32 | 1016.8 |
| 20260504042012 | 61 | 260 | 0.0 | 4.0 | 0.00 | 0.00 | 0.00 | 32 | 1016.9 |
| 20260504041511 | 61 | 260 | 1.0 | 3.0 | 0.00 | 0.00 | 0.00 | 32 | 1016.9 |
| 20260504041236 | 61 | 260 | 1.0 | 2.0 | 0.00 | 0.00 | 0.00 | 32 | 1016.9 |
| 20260504041122 | 61 | 260 | 1.0 | 2.0 | 0.00 | 0.00 | 0.00 | 32 | 1016.9 |
| 20260504040509 | 61 | 260 | 0.0 | 2.0 | 0.00 | 0.00 | 0.00 | 32 | 1016.9 |
| 20260504040032 | 61 | 260 | 0.0 | 3.0 | 0.00 | 0.00 | 0.00 | 32 | 1016.9 |
| 20260504040008 | 61 | 260 | 0.0 | 3.0 | 0.00 | 0.00 | 0.00 | 32 | 1017.0 |